Regional Weather Roundup
Issued by NWS Lake Charles, LA

Home | Current Version | Previous Version | Text Only | Print | Product List | Glossary On
Versions: 1 2 3 4 5 6 7 8 9 10 11 12 13 14 15 16 17 18 19 20 21 22 23 24 25 26 27 28
000
ASUS44 KLCH 181110
RWRLCH
REGIONAL WEATHER ROUNDUP
NATIONAL WEATHER SERVICE LAKE CHARLES LA
600 AM CDT FRI AUG 18 2017

Note: "fair" indicates few or no clouds below 12,000 feet with no
significant weather and/or obstructions to visibility.


ACROSS SOUTHEAST TEXAS

CITY           SKY/WX    TMP DP  RH WIND       PRES   REMARKS
BEAUMONT       PTCLDY    78  76  93 CALM      30.00R
BEAUMONT CITY  FAIR      78  75  91 MISG      30.01S
ORANGE         SUNNY     79  78  96 CALM      30.02R
JASPER           N/A     77  76  98 CALM      30.04R FOG
$$

ACROSS CENTRAL LOUISIANA

CITY           SKY/WX    TMP DP  RH WIND       PRES   REMARKS
LEESVILLE      CLEAR     77  76  97 S5        30.01S
FULLERTON      PTSUNNY   78  77  96 CALM      30.00R
ALEXANDRIA INT CLEAR     77  76  96 CALM      30.00S
ESLER FIELD    PTCLDY    77  77 100 CALM      30.02R
DERIDDER       FAIR      77  75  95 CALM      30.04S FOG
OAKDALE        CLOUDY    73  72  96 CALM      30.02R FOG
OPELOUSAS      FAIR      75  75 100 CALM      30.02R
$$

ACROSS SOUTHWEST AND SOUTH CENTRAL LOUISIANA

CITY           SKY/WX    TMP DP  RH WIND       PRES   REMARKS
SULPHUR        MOSUNNY   79  78  98 CALM      30.02R
LAKE CHARLES   PTCLDY    78  77  96 CALM      30.01R
CHENNAULT INT  CLEAR     75  75 100 CALM      30.02R
CAMERON PHI    PTSUNNY   84  79  84 SW7       30.00S
DEQUINCY       FAIR      75  74  98 CALM      30.02S FOG
JENNINGS       FAIR      77  76  98 CALM      30.02R
LAFAYETTE      CLEAR     78  77  96 SW3       30.02S
NEW IBERIA     CLEAR     74  72  93 CALM      30.03R
ABBEVILLE      FAIR      73  73 100 CALM      30.02S FOG
PATTERSON      PTCLDY    76  76 100 CALM      30.03R
SALT POINT       N/A     85  76  74 VRB3      30.00S
$$

SELECTED SITES ACROSS THE REGION

CITY           SKY/WX    TMP DP  RH WIND       PRES   REMARKS
HOUSTON BUSH   CLEAR     81  76  84 S5        30.00R
HOUSTON HOBBY  PTCLDY    81  76  84 CALM      30.00R
GALVESTON      PTCLDY    84  79  85 S14       30.00S
COLLEGE STAT   PTCLDY    78  76  93 CALM      30.01R
CONROE         PTCLDY    74  72  93 CALM      30.01R
HUNTSVILLE     MOCLDY    78  74  87 SW5       30.02R
LUFKIN         CLEAR     75  73  93 CALM      30.01S
SHREVEPORT     CLEAR     78  76  93 S7        29.99R
MONROE         PTCLDY    75  73  93 CALM      30.01R
NATCHEZ MS     CLEAR     77  76  96 S5        30.03R
BATON ROUGE    CLEAR     77  75  93 CALM      30.03R
N.O. INTL ARPT PTCLDY    78  77  96 CALM      30.02S
SLIDELL        CLEAR     77  75  93 CALM      30.02R
$$

MARINE REPORTS

STATION/POSITION TIME  SKY/WX   TEMP    WIND        PRES    VSBY
                                AIR SEA DIR/SP/G
                 (UTC)          (F)     (DEG/KT/KT) (MB)    (MI)
BUOY 30 S HIGH I 0950            85 87  210/ 12/ 14 1015.6
WVE H/P(F/S)=  3/ 6

SEA RIM ST PARK  1000            84     210/ 10/ 13 1016.2F
PORT ARTHUR      1048            81 87  200/  4/  5 1016.2R
SABINE PASS N    1048            83 89  200/  4/  6 1017.6R
TEXAS POINT      NOT AVBL
CALCASIEU PASS   1042               86  230/ 12/ 12 1015.1F
LK CHARLES BEACH 1048            79 86              1016.7R
MARSH ISLAND     1000            85                   N/A
FRESH WATER LOCK 1048            83 88  230/  3/  5 1016.3R
AMERADA PASS     1048            83 87   CALM  /  1 1016.4R
$$




USA.gov is the U.S. government's official web portal to all federal, state and local government web resources and services.